Location: Bacharowice
(49.9333°N, 19.5833°E)
Time: 09:31:58
(UTC+00:00)

Cosmos 1908 Rocket - Pass Details

Date: 01 October 2021
Orbit: 605 x 633 km, 82.5° (Epoch: 27 October)

Event Time Altitude Azimuth Distance (km) Brightness Sun altitude
Rises 02:32:17 0° 1° (N) 2,904 7.3 -21.2°
Reaches altitude 10° 02:35:04 10° 18° (NNE) 1,988 6.7 -20.8°
Maximum altitude 02:38:17 20° 66° (ENE) 1,444 6.4 -20.3°
Drops below altitude 10° 02:41:29 10° 113° (ESE) 1,965 6.8 -19.9°
Sets 02:44:13 0° 131° (SE) 2,860 7.4 -19.4°
